VOZ63 YPAD-YMML

Flight info

Callsign VOZ63
Flight time N/A
Altitude 33000
Route AD V255 BENDO Y12 ARBEY H119 ML
Aircraft B738/M-SDE2E3FGHIRWXY/LB1

Departure

Time N/A
Airport Adelaide International Airport (YPAD)

Arrival

Time 2026-05-08 03:47
Airport Melbourne Airport (YMML)
Time Latitude Longitude Altitude Speed Heading
2026-05-08 03:24 -36.48921 143.03813 33321 ft 448 kts 117°
2026-05-08 03:24 -36.50112 143.07394 33315 ft 448 kts 117°
2026-05-08 03:25 -36.52493 143.14569 33314 ft 449 kts 117°
2026-05-08 03:25 -36.54867 143.21741 33311 ft 449 kts 117°
2026-05-08 03:26 -36.57238 143.28920 33312 ft 449 kts 117°
2026-05-08 03:26 -36.59605 143.36107 33304 ft 449 kts 117°
2026-05-08 03:27 -36.61972 143.43307 33300 ft 449 kts 117°
2026-05-08 03:27 -36.64334 143.50513 33314 ft 449 kts 117°
2026-05-08 03:28 -36.66686 143.57707 33299 ft 449 kts 117°
2026-05-08 03:28 -36.67867 143.61321 32787 ft 454 kts 117°
2026-05-08 03:28 -36.69056 143.64956 31757 ft 462 kts 117°
2026-05-08 03:28 -36.70277 143.68701 30772 ft 468 kts 116°
2026-05-08 03:29 -36.71505 143.72482 29919 ft 470 kts 116°
2026-05-08 03:29 -36.72719 143.76241 29263 ft 466 kts 116°
2026-05-08 03:29 -36.73926 143.79973 28571 ft 462 kts 116°
2026-05-08 03:29 -36.75125 143.83674 27932 ft 459 kts 116°
2026-05-08 03:30 -36.77500 143.91004 26597 ft 453 kts 116°
2026-05-08 03:30 -36.79831 143.98234 25249 ft 450 kts 116°
2026-05-08 03:31 -36.82157 144.05465 23878 ft 448 kts 116°
2026-05-08 03:31 -36.84466 144.12659 22391 ft 444 kts 116°
2026-05-08 03:32 -36.85605 144.16217 21685 ft 441 kts 116°
2026-05-08 03:32 -36.86742 144.19770 20983 ft 439 kts 116°
2026-05-08 03:32 -36.87871 144.23303 20279 ft 437 kts 116°
2026-05-08 03:32 -36.88995 144.26823 19573 ft 436 kts 116°
2026-05-08 03:33 -36.90114 144.30335 18851 ft 435 kts 116°
2026-05-08 03:33 -36.91231 144.33843 18072 ft 434 kts 116°
2026-05-08 03:33 -36.92399 144.37300 17322 ft 427 kts 121°
2026-05-08 03:33 -36.94018 144.40359 16615 ft 417 kts 133°
2026-05-08 03:34 -36.95861 144.43146 15886 ft 414 kts 134°
2026-05-08 03:34 -36.97721 144.45829 15160 ft 411 kts 135°
2026-05-08 03:34 -36.99623 144.48489 14506 ft 408 kts 135°
2026-05-08 03:34 -37.01476 144.51085 14362 ft 392 kts 135°
2026-05-08 03:35 -37.03236 144.53597 14213 ft 376 kts 135°
2026-05-08 03:35 -37.04915 144.56025 14094 ft 361 kts 135°
2026-05-08 03:35 -37.06536 144.58368 13721 ft 353 kts 135°
2026-05-08 03:35 -37.08140 144.60672 13236 ft 348 kts 136°
2026-05-08 03:36 -37.09716 144.62929 13006 ft 337 kts 136°
2026-05-08 03:36 -37.11222 144.65095 12909 ft 322 kts 136°
2026-05-08 03:36 -37.12650 144.67156 12719 ft 304 kts 136°
2026-05-08 03:37 -37.15216 144.70856 12006 ft 277 kts 137°
2026-05-08 03:37 -37.16584 144.72484 11482 ft 265 kts 150°
2026-05-08 03:37 -37.18198 144.73492 10948 ft 254 kts 167°
2026-05-08 03:37 -37.19895 144.74008 10405 ft 250 kts 171°
2026-05-08 03:38 -37.21587 144.74457 9865 ft 247 kts 172°
2026-05-08 03:38 -37.23259 144.74885 9291 ft 244 kts 172°
2026-05-08 03:38 -37.24890 144.75309 9100 ft 239 kts 172°
2026-05-08 03:38 -37.26508 144.75738 9043 ft 236 kts 172°
2026-05-08 03:39 -37.28106 144.76165 8948 ft 234 kts 172°
2026-05-08 03:39 -37.29704 144.76590 8455 ft 234 kts 172°
2026-05-08 03:39 -37.31285 144.77012 7982 ft 230 kts 172°
2026-05-08 03:39 -37.32843 144.77428 7532 ft 227 kts 172°
2026-05-08 03:40 -37.34385 144.77789 7100 ft 224 kts 175°
2026-05-08 03:40 -37.35920 144.78053 6682 ft 221 kts 176°
2026-05-08 03:40 -37.37447 144.78292 6211 ft 224 kts 176°
2026-05-08 03:40 -37.38984 144.78544 5745 ft 221 kts 176°
2026-05-08 03:41 -37.40497 144.78807 5329 ft 218 kts 176°
2026-05-08 03:41 -37.41989 144.79073 5007 ft 214 kts 176°
2026-05-08 03:41 -37.43439 144.79373 4831 ft 209 kts 175°
2026-05-08 03:41 -37.44842 144.79660 4554 ft 200 kts 176°
2026-05-08 03:42 -37.46190 144.79917 4284 ft 193 kts 176°
2026-05-08 03:42 -37.47520 144.80165 4025 ft 192 kts 177°
2026-05-08 03:42 -37.48831 144.80409 3766 ft 189 kts 177°
2026-05-08 03:42 -37.50118 144.80650 3534 ft 182 kts 177°
2026-05-08 03:43 -37.51323 144.80877 3286 ft 167 kts 178°
2026-05-08 03:43 -37.52407 144.81081 3069 ft 150 kts 179°
2026-05-08 03:43 -37.53419 144.81269 2891 ft 143 kts 178°
2026-05-08 03:43 -37.54418 144.81452 2702 ft 146 kts 179°
2026-05-08 03:44 -37.55378 144.81634 2504 ft 134 kts 179°
2026-05-08 03:44 -37.56337 144.81809 2311 ft 142 kts 179°
2026-05-08 03:44 -37.57277 144.81986 2129 ft 135 kts 179°
2026-05-08 03:44 -37.58194 144.82158 1955 ft 131 kts 178°
2026-05-08 03:45 -37.59111 144.82328 1766 ft 137 kts 179°
2026-05-08 03:45 -37.60065 144.82505 1596 ft 139 kts 177°
2026-05-08 03:45 -37.61017 144.82684 1407 ft 139 kts 178°
2026-05-08 03:45 -37.61947 144.82860 1139 ft 133 kts 178°
2026-05-08 03:46 -37.62879 144.83028 906 ft 136 kts 180°
2026-05-08 03:46 -37.63804 144.83220 725 ft 135 kts 182°
2026-05-08 03:46 -37.64756 144.83381 600 ft 142 kts 178°
2026-05-08 03:46 -37.65719 144.83576 428 ft 136 kts 179°
2026-05-08 03:47 -37.66562 144.83715 402 ft 103 kts 171°
2026-05-08 03:47 -37.67019 144.83849 384 ft 41 kts 148°
2026-05-08 03:47 -37.67137 144.83959 380 ft 9 kts 141°
2026-05-08 03:47 -37.67152 144.83974 380 ft 0 kts 142°
2026-05-08 03:48 -37.67167 144.83989 379 ft 10 kts 142°
2026-05-08 03:48 -37.67217 144.84071 378 ft 13 kts 106°
2026-05-08 03:48 -37.67220 144.84096 378 ft 0 kts 96°
2026-05-08 03:49 -37.67219 144.84166 379 ft 14 kts 86°
2026-05-08 03:49 -37.67205 144.84338 382 ft 24 kts 83°
2026-05-08 03:49 -37.67210 144.84530 384 ft 19 kts 86°
2026-05-08 03:49 -37.67177 144.84642 387 ft 10 kts 11°
2026-05-08 03:50 -37.67124 144.84634 388 ft 0 kts 352°